{"data":{"norad_id":64836,"intl_designator":"2025-151W","name":"KUIPER-00091","alt_names":[],"object_type":"PAYLOAD","status":"ACTIVE","operator":null,"country":"US","launch_date":"2025-07-16","launch_site_code":"AFETR","launch_vehicle":null,"mission":null,"orbit_class":"UNKNOWN","rcs_meters":null,"size_class":null,"mass_kg":null,"dimensions":null,"purposes":[],"wikipedia_slug":null,"has_3d_model":false,"image_url":null,"decayed_at":null,"tle_current":{"epoch":"2026-05-24T15:33:41.064480Z","epoch_age_seconds":102521,"freshness":"FRESH","line1":"1 64836U 25151W   26144.64839195  .00003141  00000+0  44347-3 0  9996","line2":"2 64836  51.9015 307.2131 0000585 103.5455 256.5573 14.79676410 46792","mean_motion":14.7967641,"eccentricity":5.85e-5,"inclination_deg":51.9015,"raan_deg":307.2131,"arg_perigee_deg":103.5455,"mean_anomaly_deg":256.5573,"bstar":0.00044347,"rev_number":4679,"period_min":97.318575214698,"perigee_km":629.93574102961,"apogee_km":630.75573350987,"semimajor_km":7008.4827372697,"source":"CELESTRAK","updated_at":"2026-05-25T13:38:04.827472Z"}}}